Regional Weather Roundup
Issued by NWS Sioux Falls, SD

Home | Current Version | Previous Version | Graphics & Text | Print | Product List | Glossary On
Versions: 1 2 3 4 5 6 7 8 9 10 11 12 13 14 15 16 17 18 19 20 21 22 23 24 25 26 27 28 29 30 31 32 33 34 35 36 37 38 39 40 41 42 43 44 45 46 47 48 49 50
000
ASUS43 KFSD 260302
RWRFSD

WEATHER ROUNDUP FOR SE SOUTH DAKOTA/SW MINNESOTA/NW IOWA
NATIONAL WEATHER SERVICE SIOUX FALLS SD
1000 PM CDT WED MAY 25 2016

NOTE: "FAIR" INDICATES FEW OR NO CLOUDS BELOW 12,000 FEET WITH NO
SIGNIFICANT WEATHER AND OR OBSTRUCTIONS TO VISIBILITY.


SDZ038>040-050-052>070-260400-
SOUTHEAST SOUTH DAKOTA

CITY           SKY/WX    TMP DP  RH WIND       PRES   REMARKS
BROOKINGS      CLOUDY    64  50  60 NW9       29.86R
CHAMBERLAIN    NOT AVBL
HURON          CLOUDY    58  54  86 S9        29.79R
MADISON        LGT RAIN  59  59 100 N14G21    29.84R
MITCHELL       CLOUDY    67  61  81 N5        29.80R
SIOUX FALLS    LGT RAIN  69  61  75 N7        29.82R
WINNER         FAIR      60  54  80 CALM      29.84R
YANKTON        CLOUDY    55  52  88 N8        29.83R THUNDER
$$

MNZ071-072-080-081-089-090-097-098-260400-
SOUTHWEST MINNESOTA

CITY           SKY/WX    TMP DP  RH WIND       PRES   REMARKS
FAIRMONT       CLEAR     70  59  68 CALM      29.82R
JACKSON        CLEAR     70  59  68 CALM      29.83R
LUVERNE        CLOUDY    68  59  73 W6        29.83R
MARSHALL       CLOUDY    70  60  70 W7        29.82R
MONTEVIDEO     PTCLDY    72  55  56 W3        29.82R
PIPESTONE      CLOUDY    70  61  73 NW5       29.84R
REDWOOD FALLS  CLEAR     72  59  63 W6        29.80R
TRACY          CLOUDY    69  62  79 CALM      29.83R
WINDOM         CLEAR     70  61  73 CALM      29.82R
WORTHINGTON    CLEAR     70  62  76 CALM      29.83R
$$

IAZ001>003-012>014-020>022-031-032-NEZ013-014-SDZ071-260400-
NORTHWEST IOWA

CITY           SKY/WX    TMP DP  RH WIND       PRES   REMARKS
DENISON        PTCLDY    72  66  83 S8        29.81S
ESTHERVILLE    PTCLDY    70  58  65 S3        29.82R
SIOUX CITY     CLEAR     73  65  75 S8        29.80R
SPENCER        CLEAR     71  60  68 S5        29.81R
STORM LAKE     CLEAR     72  63  73 S12       29.84R
$$

ABBREVIATIONS USED IN REMARKS
   TC - TEMPERATURE IN CELSIUS
  WCI - WIND CHILL INDEX
   HX - HEAT INDEX
  VSB - VISIBILITY





USA.gov is the U.S. government's official web portal to all federal, state and local government web resources and services.